User: anonymous   Login
Location: Caltech
(34.1382°N, 118.1253°W)
Time: 16:41:59
(UTC-07:00)
Language:

OAO 2 Rocket - Orbit

View from above orbital plane
View from above orbital plane
View from above satellite
View from above satellite

Ground track
Ground track

The orbit data is extracted from the following two-line orbital elements,

1 03598U 68110B   15154.66699506  .00000170  00000-0  43865-4 0  9992
2 03598 034.9932 220.7074 0050070 309.2536 050.3721 14.54050906458031
Epoch (UTC): 03 June 2015 16:00:28
Eccentricity: 0.0050070
inclination: 34.9932°
perigee height: 677 km
apogee height: 748 km
right ascension of ascending node: 220.7074°
argument of perigee: 309.2536°
revolutions per day: 14.54050906
mean anomaly at epoch: 50.3721°
orbit number at epoch: 45803

The dashed part of the orbit path shows where the satellite is in the earth's shadow,  

DLR